Weather History for Mather AFB, CA

Change the Weather History Date:

Wednesday, March 19, 2014

  Actual Average Record
Temperature  
Mean Temperature 58 °F -  
Max Temperature 73 °F 66 °F 78 °F (2004)
Min Temperature 42 °F 41 °F 32 °F (2012)
Degree Days  
Heating Degree Days 8    
Growing Degree Days 8 (Base 50)    
Moisture  
Dew Point 42 °F    
Average Humidity 60    
Maximum Humidity 93    
Minimum Humidity 27    
Precipitation  
Precipitation 0.00 in - - ()
Sea Level Pressure  
Sea Level Pressure 30.04 in    
Wind  
Wind Speed 2 mph (SSE)    
Max Wind Speed 7 mph    
Max Gust Speed -    
Visibility 10 miles    
Events      
Averages and records for this station are not official NWS values.
T = Trace of Precipitation, MM = Missing Value Source: NWS Daily Summary

Daily Weather History Graph

Daily Weather History Graph

Search for Another Location

Airport:

Trip Planner

Search our weather history database for the weather conditions in past years. The results will help you decide how hot, cold, wet, or windy it might be!

Date:

Astronomy

Mar. 19, 2014 Rise Set
Actual Time 7:10 AM PDT 7:16 PM PDT
Civil Twilight 6:43 AM PDT 7:42 PM PDT
Nautical Twilight 6:12 AM PDT 8:13 PM PDT
Astronomical Twilight 5:41 AM PDT 8:45 PM PDT
Moon 10:37 PM PDT (3/19) 8:41 AM PDT (3/19)
Length of Visible Light 12h 59m
Length of Day
12h 06m
Waning Gibbous, 90% of the Moon is Illuminated
Mar 19
Waning Gibbous
Mar 23
Last Quarter
Mar 30
New
Apr 7
First Quarter
Apr 15
Full

Hourly Weather History & Observations

Time (PDT) Temp. Windchill Dew Point Humidity Pressure Visibility Wind Dir Wind Speed Gust Speed Precip Events Conditions
2:46 AM 46.4 °F - 41.0 °F 81% 29.98 in 10.0 mi Calm Calm - N/A   Clear
3:46 AM 42.8 °F - 39.2 °F 87% 29.99 in 10.0 mi Calm Calm - N/A   Clear
4:46 AM 42.8 °F 40.1 °F 41.0 °F 93% 29.99 in 10.0 mi ESE 4.6 mph - N/A   Clear
5:46 AM 44.6 °F 40.7 °F 39.2 °F 81% 30.00 in 10.0 mi East 6.9 mph - N/A   Clear
6:47 AM 42.8 °F - 39.2 °F 87% 30.02 in 10.0 mi Calm Calm - N/A   Clear
7:46 AM 42.8 °F - 39.2 °F 87% 30.04 in 10.0 mi Calm Calm - N/A   Clear
8:47 AM 50.0 °F - 41.0 °F 71% 30.07 in 10.0 mi NNE 3.5 mph - N/A   Partly Cloudy
9:46 AM 55.4 °F - 39.2 °F 54% 30.09 in 10.0 mi Calm Calm - N/A   Partly Cloudy
10:55 AM 60.8 °F - 41.0 °F 48% 30.11 in 10.0 mi Calm Calm - N/A   Partly Cloudy
11:45 AM 64.4 °F - 44.6 °F 49% 30.10 in 10.0 mi SSW 3.5 mph - N/A   Scattered Clouds
12:45 PM 68.0 °F - 46.4 °F 46% 30.08 in 10.0 mi Calm Calm - N/A   Scattered Clouds
1:46 PM 69.8 °F - 46.4 °F 43% 30.06 in 10.0 mi South 6.9 mph - N/A   Scattered Clouds
2:50 PM 71.6 °F - 44.6 °F 38% 30.04 in 10.0 mi SSW 4.6 mph - N/A   Scattered Clouds
3:45 PM 73.4 °F - 41.0 °F 31% 30.02 in 10.0 mi SSW 5.8 mph - N/A   Scattered Clouds
4:45 PM 73.4 °F - 37.4 °F 27% 30.02 in 10.0 mi SW 4.6 mph - N/A   Scattered Clouds
5:50 PM 73.4 °F - 39.2 °F 29% 30.02 in 10.0 mi Calm Calm - N/A   Mostly Cloudy
6:45 PM 69.8 °F - 41.0 °F 35% 30.02 in 10.0 mi SSW 5.8 mph - N/A   Mostly Cloudy
7:50 PM 62.6 °F - 42.8 °F 48% 30.02 in 10.0 mi NE 4.6 mph - N/A   Scattered Clouds
8:45 PM 59.0 °F - 42.8 °F 55% 30.03 in 10.0 mi ESE 3.5 mph - N/A   Scattered Clouds
9:45 PM 57.2 °F - 44.6 °F 63% 30.03 in 10.0 mi Calm Calm - N/A   Scattered Clouds
10:50 PM 50.0 °F - 46.4 °F 87% 30.04 in 10.0 mi Calm Calm - N/A   Scattered Clouds
11:30 PM 50.0 °F - 44.6 °F 82% 30.04 in 10.0 mi Calm Calm - N/A   Scattered Clouds